カタログに戻る

FALCON 9 R/B

運用中HEO
NORAD 47241·ROCKET BODY·🇺🇸 United States

打ち上げ Dec 13, 2020 から Cape Canaveral Space Force Station

Loading…

次のパス (今後24時間)

TLE

最新Source: Space-Track

元期: Sep 14, 2026, 10:02 UTC

1 47241U 20096B   26257.41862600  .00012943  00000-0  81450-3 0  9994
2 47241  26.9661 299.5872 4394707 208.5578 118.0849  6.72850148112377

AllMySatでFALCON 9 R/Bをリアルタイム追跡

Download on the App Store